Centerville, IA

11:34 AM CDT on April 26, 2018 (GMT -0500)
Centerville Municipal

Weather History for KTVK - January, 2013

Change the Weather History Date:

Saturday, January 5, 2013

  Actual Average Record
Temperature  
Mean Temperature 30 °F -  
Max Temperature 37 °F 31 °F 62 °F (2012)
Min Temperature 24 °F 13 °F -11 °F (1959)
Degree Days  
Heating Degree Days 34    
Moisture  
Dew Point 27 °F    
Average Humidity 86    
Maximum Humidity 100    
Minimum Humidity 75    
Precipitation  
Precipitation 0.00 in - - ()
Sea Level Pressure  
Sea Level Pressure 30.10 in    
Wind  
Wind Speed 10 mph (SSW)    
Max Wind Speed 21 mph    
Max Gust Speed 26 mph    
Visibility 10 miles    
Events Rain , Snow    
Averages and records for this station are not official NWS values.
T = Trace of Precipitation, MM = Missing Value Source: NWS Daily Summary

Daily Weather History Graph

Daily Weather History Graph

Search for Another Location

Airport or City:

Astronomy

Jan. 05, 2013 Rise Set
Actual Time 7:35 AM CST 4:58 PM CST
Civil Twilight 7:05 AM CST 5:29 PM CST
Nautical Twilight 6:30 AM CST 6:03 PM CST
Astronomical Twilight 5:57 AM CST 6:36 PM CST
Moon 12:41 AM CST (1/5) 11:49 AM CST (1/5)
Length of Visible Light 10h 24m
Length of Day
9h 23m
Last Quarter, 44% of the Moon is Illuminated
Jan 5
Last Quarter
Jan 11
New
Jan 18
First Quarter
Jan 26
Full
Feb 3
Last Quarter

Hourly Weather History & Observations

Time (CST) Temp. Windchill Dew Point Humidity Pressure Visibility Wind Dir Wind Speed Gust Speed Precip Events Conditions
12:15 AM 26.6 °F 19.1 °F 23.0 °F 86% 30.20 in - SSW 6.9 mph - N/A   Unknown
12:35 AM 26.6 °F 18.2 °F 23.0 °F 86% 30.20 in - SSW 8.1 mph - N/A   Unknown
12:55 AM 26.6 °F 17.5 °F 23.0 °F 86% 30.20 in - SSW 9.2 mph - N/A   Unknown
1:15 AM 28.4 °F 20.4 °F 24.8 °F 86% 30.19 in - SSW 8.1 mph - N/A   Unknown
1:35 AM 26.6 °F 19.1 °F 23.0 °F 86% 30.19 in - South 6.9 mph - N/A   Unknown
1:55 AM 26.6 °F 18.2 °F 23.0 °F 86% 30.19 in - SSW 8.1 mph - N/A   Unknown
2:15 AM 26.6 °F 19.1 °F 23.0 °F 86% 30.19 in - SSW 6.9 mph - N/A   Unknown
2:35 AM 26.6 °F 19.1 °F 23.0 °F 86% 30.19 in - SSW 6.9 mph - N/A   Unknown
2:55 AM 24.8 °F 16.9 °F 23.0 °F 93% 30.19 in - SSW 6.9 mph - N/A   Unknown
3:15 AM 26.6 °F 18.2 °F 23.0 °F 86% 30.19 in - SSW 8.1 mph - N/A   Unknown
3:35 AM 24.8 °F 16.1 °F 23.0 °F 93% 30.18 in - SSW 8.1 mph - N/A   Unknown
3:55 AM 24.8 °F 15.3 °F 23.0 °F 93% 30.17 in - SSW 9.2 mph - N/A   Unknown
4:15 AM 26.6 °F 18.2 °F 24.8 °F 93% 30.17 in - SSW 8.1 mph - N/A   Unknown
4:35 AM 26.6 °F 17.5 °F 24.8 °F 93% 30.16 in - SSW 9.2 mph - N/A   Mostly Cloudy
4:55 AM 28.4 °F 20.4 °F 24.8 °F 86% 30.16 in - SSW 8.1 mph - N/A   Unknown
5:15 AM 28.4 °F 19.7 °F 24.8 °F 86% 30.15 in - SSW 9.2 mph - N/A   Unknown
5:55 AM 26.6 °F 18.2 °F 23.0 °F 86% 30.15 in - SSW 8.1 mph - N/A   Unknown
6:55 AM 26.6 °F 18.2 °F 23.0 °F 86% 30.15 in - South 8.1 mph - N/A   Unknown
7:15 AM 28.4 °F 19.1 °F 23.0 °F 80% 30.16 in - South 10.4 mph - N/A   Unknown
7:35 AM 28.4 °F 19.7 °F 24.8 °F 86% 30.15 in - SSW 9.2 mph - N/A   Unknown
7:55 AM 28.4 °F 20.4 °F 24.8 °F 86% 30.15 in - South 8.1 mph - N/A   Unknown
8:35 AM 32.0 °F 23.6 °F 26.6 °F 80% 30.14 in - South 10.4 mph - N/A   Partly Cloudy
8:55 AM 32.0 °F 21.6 °F 28.4 °F 87% 30.15 in - South 15.0 mph - N/A   Mostly Cloudy
9:15 AM 32.0 °F 21.2 °F 28.4 °F 87% 30.16 in - South 16.1 mph 23.0 mph N/A   Overcast
9:35 AM 33.8 °F 23.9 °F 30.2 °F 87% 30.16 in - South 15.0 mph - N/A   Unknown
9:55 AM 35.6 °F 26.2 °F 30.2 °F 81% 30.15 in - South 15.0 mph 20.7 mph N/A   Mostly Cloudy
10:15 AM 35.6 °F 25.9 °F 32.0 °F 87% 30.14 in - South 16.1 mph 19.6 mph N/A   Mostly Cloudy
10:35 AM 35.6 °F 26.6 °F 32.0 °F 87% 30.14 in - South 13.8 mph - N/A   Overcast
10:55 AM 37.4 °F 28.2 °F 32.0 °F 81% 30.12 in - South 16.1 mph - N/A   Mostly Cloudy
11:15 AM 37.4 °F 28.2 °F 32.0 °F 81% 30.12 in 10.0 mi South 16.1 mph 23.0 mph N/A   Mostly Cloudy
11:35 AM 37.4 °F 28.5 °F 32.0 °F 81% 30.10 in 10.0 mi South 15.0 mph 21.9 mph N/A   Overcast
11:55 AM 37.4 °F 26.9 °F 32.0 °F 81% 30.08 in 10.0 mi SSW 20.7 mph 24.2 mph N/A Snow Light Snow
12:15 PM 35.6 °F 27.1 °F 33.8 °F 93% 30.07 in - South 12.7 mph - N/A Rain Light Rain
12:35 PM 35.6 °F 25.9 °F 33.8 °F 93% 30.06 in - SSW 16.1 mph - N/A   Overcast
12:55 PM 35.6 °F 26.6 °F 33.8 °F 93% 30.05 in - South 13.8 mph 21.9 mph N/A   Overcast
1:35 PM 35.6 °F 25.2 °F 35.6 °F 100% 30.02 in - South 18.4 mph - N/A   Overcast
1:55 PM 35.6 °F 25.2 °F 33.8 °F 93% 30.01 in - South 18.4 mph 26.5 mph N/A   Overcast
2:15 PM 35.6 °F 25.5 °F 33.8 °F 93% 30.01 in - SSW 17.3 mph - N/A   Overcast
2:55 PM 35.6 °F 25.9 °F 33.8 °F 93% 30.01 in - South 16.1 mph - N/A   Unknown
3:15 PM 35.6 °F 26.6 °F 32.0 °F 87% 30.00 in - South 13.8 mph 19.6 mph N/A   Overcast
3:35 PM 35.6 °F 26.6 °F 32.0 °F 87% 30.00 in - SSW 13.8 mph - N/A   Overcast
4:15 PM 35.6 °F 28.6 °F 32.0 °F 87% 30.01 in - SSW 9.2 mph - N/A   Unknown
4:55 PM 35.6 °F 27.1 °F 32.0 °F 87% 30.00 in - South 12.7 mph - N/A   Unknown
5:15 PM 35.6 °F 27.1 °F 32.0 °F 87% 30.00 in - SSW 12.7 mph - N/A   Mostly Cloudy
5:35 PM 35.6 °F 27.1 °F 32.0 °F 87% 30.00 in - South 12.7 mph - N/A   Mostly Cloudy
6:15 PM 35.6 °F 28.0 °F 32.0 °F 87% 30.01 in - SSW 10.4 mph - N/A   Mostly Cloudy
7:15 PM 35.6 °F 28.0 °F 32.0 °F 87% 30.03 in - SW 10.4 mph - N/A   Mostly Cloudy
7:55 PM 35.6 °F 24.8 °F 32.0 °F 87% 30.04 in - West 19.6 mph - N/A   Overcast
8:15 PM 33.8 °F 23.9 °F 28.4 °F 81% 30.04 in - West 15.0 mph - N/A   Scattered Clouds
8:35 PM 32.0 °F 22.5 °F 26.6 °F 80% 30.05 in 10.0 mi West 12.7 mph 20.7 mph N/A   Clear
8:55 PM 32.0 °F 20.8 °F 24.8 °F 75% 30.06 in 10.0 mi West 17.3 mph - N/A   Clear
9:15 PM 30.2 °F 19.3 °F 24.8 °F 80% 30.07 in 10.0 mi WNW 15.0 mph - N/A   Clear
9:35 PM 28.4 °F 18.5 °F 23.0 °F 80% 30.07 in 10.0 mi WNW 11.5 mph - N/A   Clear
9:55 PM 28.4 °F 19.7 °F 23.0 °F 80% 30.06 in 10.0 mi West 9.2 mph - N/A   Scattered Clouds
10:15 PM 28.4 °F 21.2 °F 23.0 °F 80% 30.06 in 10.0 mi West 6.9 mph - N/A   Overcast
10:35 PM 28.4 °F 20.4 °F 23.0 °F 80% 30.06 in 10.0 mi West 8.1 mph - N/A   Overcast
10:55 PM 28.4 °F 19.7 °F 23.0 °F 80% 30.07 in - West 9.2 mph - N/A   Overcast
11:15 PM 28.4 °F 19.7 °F 23.0 °F 80% 30.07 in - West 9.2 mph - N/A   Overcast
11:35 PM 28.4 °F 18.0 °F 23.0 °F 80% 30.07 in 10.0 mi West 12.7 mph - N/A   Overcast
11:55 PM 28.4 °F 16.6 °F 24.8 °F 86% 30.07 in 10.0 mi West 16.1 mph - N/A   Overcast